Stündliche Wetter Barneveld

Heute, 23 Oktober, Freitag

Zeit Temperatur Niederschläge Wind Luftdruck Luftfeuchtigkeit
00:00 +10°C° 0 mm 2 m/S 757 mmHg 94%
01:00 +10°C° 0 mm 2 m/S 757 mmHg 95%
02:00 +10°C° 0 mm 2 m/S 757 mmHg 95%
03:00 +9°C° 0 mm 2 m/S 757 mmHg 95%
04:00 +9°C° 0 mm 2 m/S 756 mmHg 96%
05:00 +9°C° 0 mm 2 m/S 756 mmHg 96%
06:00 +9°C° 0 mm 2 m/S 756 mmHg 96%
07:00 +10°C° 0 mm 2 m/S 756 mmHg 94%
08:00 +12°C° 0 mm 3 m/S 756 mmHg 91%
09:00 +13°C° 0 mm 3 m/S 756 mmHg 89%
10:00 +14°C° 0 mm 3 m/S 756 mmHg 84%
11:00 +16°C° 0 mm 3 m/S 756 mmHg 79%
12:00 +17°C° 0 mm 3 m/S 756 mmHg 73%
13:00 +17°C° 0 mm 3 m/S 755 mmHg 75%
14:00 +17°C° 0 mm 3 m/S 755 mmHg 76%
15:00 +17°C° 0 mm 3 m/S 755 mmHg 77%
16:00 +14°C° 0 mm 3 m/S 755 mmHg 82%
17:00 +13°C° 0 mm 3 m/S 756 mmHg 86%
18:00 +12°C° 0 mm 3 m/S 756 mmHg 90%
19:00 +12°C° 0 mm 4 m/S 756 mmHg 90%
20:00 +12°C° 0 mm 4 m/S 757 mmHg 89%
21:00 +12°C° 0 mm 5 m/S 757 mmHg 89%
22:00 +10°C° 0 mm 5 m/S 757 mmHg 89%
23:00 +10°C° 0 mm 5 m/S 757 mmHg 90%

Morgen, 24 Oktober, Samstag

Zeit Temperatur Niederschläge Wind Luftdruck Luftfeuchtigkeit
00:00 +10°C° 0 mm 4 m/S 757 mmHg 90%
01:00 +9°C° 0 mm 5 m/S 757 mmHg 89%
02:00 +10°C° 0 mm 5 m/S 758 mmHg 88%
03:00 +10°C° 0 mm 5 m/S 758 mmHg 87%
04:00 +10°C° 0 mm 4 m/S 758 mmHg 88%
05:00 +10°C° 0 mm 4 m/S 758 mmHg 89%
06:00 +9°C° 0 mm 3 m/S 758 mmHg 90%
07:00 +10°C° 0 mm 4 m/S 758 mmHg 88%
08:00 +11°C° 0 mm 4 m/S 758 mmHg 86%
09:00 +10°C° 0 mm 5 m/S 758 mmHg 84%
10:00 +12°C° 0 mm 5 m/S 758 mmHg 84%
11:00 +11°C° 0 mm 6 m/S 758 mmHg 83%
12:00 +13°C° 0 mm 6 m/S 757 mmHg 82%
13:00 +13°C° 0 mm 6 m/S 757 mmHg 80%
14:00 +13°C° 0 mm 6 m/S 757 mmHg 79%
15:00 +14°C° 0 mm 6 m/S 756 mmHg 77%
16:00 +14°C° 0 mm 6 m/S 756 mmHg 78%
17:00 +14°C° 0 mm 6 m/S 756 mmHg 79%
18:00 +13°C° 0 mm 6 m/S 756 mmHg 80%
19:00 +14°C° 0 mm 7 m/S 755 mmHg 79%
20:00 +14°C° 0 mm 7 m/S 755 mmHg 79%
21:00 +14°C° 0 mm 7 m/S 755 mmHg 78%
22:00 +14°C° 0 mm 7 m/S 755 mmHg 79%
23:00 +14°C° 0 mm 7 m/S 754 mmHg 79%

übermorgen, 25 Oktober, Sonntag

Zeit Temperatur Niederschläge Wind Luftdruck Luftfeuchtigkeit
00:00 +12°C° 0 mm 8 m/S 754 mmHg 80%
01:00 +12°C° 0 mm 8 m/S 754 mmHg 79%
02:00 +12°C° 0 mm 7 m/S 753 mmHg 79%
03:00 +12°C° 0 mm 7 m/S 753 mmHg 78%
04:00 +12°C° 0 mm 7 m/S 752 mmHg 76%
05:00 +12°C° 0 mm 7 m/S 752 mmHg 74%
06:00 +12°C° 0 mm 7 m/S 752 mmHg 72%
07:00 +12°C° 0 mm 7 m/S 752 mmHg 73%
08:00 +12°C° 0 mm 7 m/S 752 mmHg 73%
09:00 +12°C° 0 mm 7 m/S 752 mmHg 74%
10:00 +12°C° 0.1 mm 7 m/S 752 mmHg 77%
11:00 +11°C° 0.1 mm 7 m/S 752 mmHg 79%
12:00 +11°C° 0.1 mm 7 m/S 752 mmHg 82%
13:00 +11°C° 0.5 mm 6 m/S 752 mmHg 85%
14:00 +10°C° 0.5 mm 5 m/S 752 mmHg 88%
15:00 +10°C° 0.5 mm 5 m/S 752 mmHg 91%
16:00 +10°C° 0.2 mm 5 m/S 752 mmHg 91%
17:00 +10°C° 0.2 mm 5 m/S 752 mmHg 91%
18:00 +10°C° 0.2 mm 5 m/S 752 mmHg 91%
19:00 +11°C° 0.1 mm 4 m/S 752 mmHg 91%
20:00 +10°C° 0.1 mm 3 m/S 752 mmHg 91%
21:00 +10°C° 0.1 mm 2 m/S 753 mmHg 91%
22:00 +9°C° 0 mm 2 m/S 753 mmHg 92%
23:00 +9°C° 0 mm 2 m/S 753 mmHg 92%

, 26 Oktober, Montag

Zeit Temperatur Niederschläge Wind Luftdruck Luftfeuchtigkeit
00:00 +8°C° 0 mm 2 m/S 753 mmHg 93%
01:00 +9°C° 0 mm 2 m/S 752 mmHg 93%
02:00 +9°C° 0 mm 2 m/S 752 mmHg 94%
03:00 +9°C° 0 mm 2 m/S 752 mmHg 94%
04:00 +9°C° 0.3 mm 2 m/S 752 mmHg 94%
05:00 +9°C° 0.3 mm 2 m/S 752 mmHg 95%
06:00 +9°C° 0.3 mm 2 m/S 753 mmHg 95%
07:00 +9°C° 0.1 mm 2 m/S 753 mmHg 93%
08:00 +10°C° 0.1 mm 2 m/S 753 mmHg 92%
09:00 +10°C° 0.1 mm 2 m/S 753 mmHg 90%
10:00 +12°C° 0.1 mm 2 m/S 753 mmHg 86%
11:00 +12°C° 0.1 mm 2 m/S 753 mmHg 82%
12:00 +13°C° 0.1 mm 2 m/S 753 mmHg 78%
13:00 +13°C° 0.1 mm 2 m/S 753 mmHg 78%
14:00 +13°C° 0.1 mm 1 m/S 753 mmHg 79%
15:00 +13°C° 0.1 mm 1 m/S 753 mmHg 80%
16:00 +12°C° 0 mm 1 m/S 753 mmHg 83%
17:00 +11°C° 0 mm 1 m/S 754 mmHg 87%
18:00 +9°C° 0 mm 1 m/S 754 mmHg 90%
19:00 +9°C° 0 mm 1 m/S 754 mmHg 91%
20:00 +9°C° 0 mm 1 m/S 754 mmHg 91%
21:00 +8°C° 0 mm 1 m/S 755 mmHg 91%
22:00 +8°C° 0 mm 1 m/S 755 mmHg 92%
23:00 +8°C° 0 mm 1 m/S 755 mmHg 92%

26 Oktober, Montag

Zeit Temperatur Niederschläge Wind Luftdruck Luftfeuchtigkeit
00:00 +8°C° 0 mm 2 m/S 753 mmHg 93%
01:00 +9°C° 0 mm 2 m/S 752 mmHg 93%
02:00 +9°C° 0 mm 2 m/S 752 mmHg 94%
03:00 +9°C° 0 mm 2 m/S 752 mmHg 94%
04:00 +9°C° 0.3 mm 2 m/S 752 mmHg 94%
05:00 +9°C° 0.3 mm 2 m/S 752 mmHg 95%
06:00 +9°C° 0.3 mm 2 m/S 753 mmHg 95%
07:00 +9°C° 0.1 mm 2 m/S 753 mmHg 93%
08:00 +10°C° 0.1 mm 2 m/S 753 mmHg 92%
09:00 +10°C° 0.1 mm 2 m/S 753 mmHg 90%
10:00 +12°C° 0.1 mm 2 m/S 753 mmHg 86%
11:00 +12°C° 0.1 mm 2 m/S 753 mmHg 82%
12:00 +13°C° 0.1 mm 2 m/S 753 mmHg 78%
13:00 +13°C° 0.1 mm 2 m/S 753 mmHg 78%
14:00 +13°C° 0.1 mm 1 m/S 753 mmHg 79%
15:00 +13°C° 0.1 mm 1 m/S 753 mmHg 80%
16:00 +12°C° 0 mm 1 m/S 753 mmHg 83%
17:00 +11°C° 0 mm 1 m/S 754 mmHg 87%
18:00 +9°C° 0 mm 1 m/S 754 mmHg 90%
19:00 +9°C° 0 mm 1 m/S 754 mmHg 91%
20:00 +9°C° 0 mm 1 m/S 754 mmHg 91%
21:00 +8°C° 0 mm 1 m/S 755 mmHg 91%
22:00 +8°C° 0 mm 1 m/S 755 mmHg 92%
23:00 +8°C° 0 mm 1 m/S 755 mmHg 92%

27 Oktober, Dienstag

Zeit Temperatur Niederschläge Wind Luftdruck Luftfeuchtigkeit
00:00 +7°C° 0 mm 1 m/S 755 mmHg 92%
01:00 +7°C° 0 mm 1 m/S 755 mmHg 93%
02:00 +6°C° 0 mm 2 m/S 755 mmHg 93%
03:00 +6°C° 0 mm 2 m/S 755 mmHg 94%
04:00 +6°C° 0 mm 2 m/S 755 mmHg 94%
05:00 +6°C° 0 mm 2 m/S 756 mmHg 95%
06:00 +5°C° 0 mm 2 m/S 756 mmHg 95%
07:00 +7°C° 0 mm 2 m/S 756 mmHg 93%
08:00 +8°C° 0 mm 2 m/S 756 mmHg 90%
09:00 +9°C° 0 mm 2 m/S 756 mmHg 88%
10:00 +10°C° 0 mm 2 m/S 756 mmHg 82%
11:00 +11°C° 0 mm 3 m/S 756 mmHg 77%
12:00 +12°C° 0 mm 3 m/S 756 mmHg 72%
13:00 +12°C° 0 mm 3 m/S 756 mmHg 74%
14:00 +12°C° 0 mm 3 m/S 756 mmHg 76%
15:00 +11°C° 0 mm 3 m/S 756 mmHg 79%
16:00 +10°C° 0 mm 3 m/S 756 mmHg 81%
17:00 +10°C° 0 mm 3 m/S 756 mmHg 83%
18:00 +8°C° 0 mm 4 m/S 756 mmHg 85%
19:00 +8°C° 0 mm 4 m/S 756 mmHg 83%
20:00 +8°C° 0 mm 5 m/S 756 mmHg 81%
21:00 +8°C° 0 mm 5 m/S 756 mmHg 79%
22:00 +8°C° 0 mm 5 m/S 756 mmHg 77%
23:00 +8°C° 0 mm 6 m/S 755 mmHg 75%

28 Oktober, Mittwoch

Zeit Temperatur Niederschläge Wind Luftdruck Luftfeuchtigkeit
00:00 +8°C° 0 mm 6 m/S 755 mmHg 72%
01:00 +8°C° 0.2 mm 6 m/S 755 mmHg 76%
02:00 +8°C° 0.2 mm 6 m/S 755 mmHg 79%
03:00 +8°C° 0.2 mm 6 m/S 755 mmHg 83%
04:00 +8°C° 0.3 mm 6 m/S 755 mmHg 86%
05:00 +8°C° 0.3 mm 6 m/S 755 mmHg 89%
06:00 +8°C° 0.3 mm 6 m/S 755 mmHg 92%
07:00 +9°C° 0.1 mm 5 m/S 756 mmHg 90%
08:00 +10°C° 0.1 mm 5 m/S 756 mmHg 88%
09:00 +10°C° 0.1 mm 5 m/S 757 mmHg 86%
10:00 +12°C° 0 mm 5 m/S 757 mmHg 82%
11:00 +13°C° 0 mm 5 m/S 757 mmHg 79%
12:00 +13°C° 0 mm 5 m/S 758 mmHg 75%
13:00 +13°C° 0.2 mm 4 m/S 758 mmHg 77%
14:00 +12°C° 0.2 mm 4 m/S 758 mmHg 79%
15:00 +12°C° 0.2 mm 4 m/S 758 mmHg 80%
16:00 +11°C° 0.1 mm 4 m/S 758 mmHg 82%
17:00 +11°C° 0.1 mm 4 m/S 758 mmHg 83%
18:00 +10°C° 0.1 mm 4 m/S 758 mmHg 85%
19:00 +10°C° 0.1 mm 4 m/S 759 mmHg 85%
20:00 +9°C° 0.1 mm 5 m/S 759 mmHg 85%
21:00 +9°C° 0.1 mm 5 m/S 759 mmHg 85%
22:00 +9°C° 0.5 mm 5 m/S 759 mmHg 87%
23:00 +9°C° 0.5 mm 6 m/S 759 mmHg 88%
Mehr zeigen